Location: �perlecques
(50.8057°N, 2.1521°E)
Time: 08:05:25
(UTC+00:00)

BlueWalker 3 - Pass Details

Date: 03 December 2023
Orbit: 485 x 500 km, 53.2° (Epoch: 28 February)

Event Time Altitude Azimuth Distance (km) Brightness Sun altitude
Exits shadow 05:19:06 34° 207° (SSW) 842 2.9 -20.3°
Drops below altitude 10° 05:22:20 10° 150° (SSE) 1,688 5.1 -19.8°
Sets 05:24:36 0° 141° (SE) 2,563 6.3 -19.4°
